MQC9212 FZAA-DRRN

Flight info

Callsign MQC9212
Flight time 2h 59m
Altitude 34000
Route BZ UA604 AKLIS UW225 ABC UL684 BOVDA UT365 BOVDA RILOS1L
Aircraft MD11/H-SDE1E2E3FGHIJ2J3J4J5M1RWXY/LB1D1

Departure

Time 2026-05-04 17:00
Airport Ndjili International Airport (FZAA)

Arrival

Time 2026-05-04 19:59
Airport Diori Hamani International Airport (DRRN)
Time Latitude Longitude Altitude Speed Heading
2026-05-04 16:35 -4.38925 15.44373 1040 ft 0 kts 147°
2026-05-04 16:48 -4.38892 15.44351 1041 ft 0 kts 173°
2026-05-04 16:49 -4.38883 15.44350 1040 ft 0 kts 173°
2026-05-04 16:53 -4.38897 15.44363 1040 ft 2 kts 108°
2026-05-04 16:53 -4.38794 15.44449 1040 ft 17 kts 49°
2026-05-04 16:54 -4.38715 15.44568 1040 ft 24 kts 57°
2026-05-04 16:55 -4.38463 15.44916 1032 ft 2 kts 354°
2026-05-04 16:55 -4.38359 15.44851 1037 ft 17 kts 325°
2026-05-04 16:56 -4.38277 15.44894 1033 ft 14 kts 60°
2026-05-04 16:56 -4.37996 15.45329 1029 ft 26 kts 57°
2026-05-04 16:57 -4.37902 15.45474 1032 ft 25 kts 57°
2026-05-04 16:57 -4.37764 15.45734 1028 ft 8 kts 351°
2026-05-04 16:58 -4.37764 15.45688 1026 ft 0 kts 236°
2026-05-04 16:58 -4.37777 15.45668 1027 ft 21 kts 239°
2026-05-04 16:59 -4.38523 15.44511 1040 ft 167 kts 238°
2026-05-04 17:00 -4.41421 15.40085 3385 ft 190 kts 236°
2026-05-04 17:00 -4.43788 15.36439 4424 ft 242 kts 235°
2026-05-04 17:01 -4.44315 15.32985 4675 ft 279 kts 288°
2026-05-04 17:01 -4.41704 15.29991 5680 ft 296 kts 324°
2026-05-04 17:02 -4.38255 15.27678 7096 ft 301 kts 327°
2026-05-04 17:02 -4.34725 15.25362 8523 ft 306 kts 327°
2026-05-04 17:03 -4.32940 15.24183 9241 ft 308 kts 327°
2026-05-04 17:03 -4.31141 15.22992 9926 ft 311 kts 327°
2026-05-04 17:03 -4.27315 15.20451 10282 ft 354 kts 327°
2026-05-04 17:04 -4.23066 15.17620 11174 ft 374 kts 327°
2026-05-04 17:04 -4.18695 15.14707 12454 ft 382 kts 327°
2026-05-04 17:05 -4.14232 15.11736 13749 ft 388 kts 327°
2026-05-04 17:05 -4.09688 15.08712 14856 ft 395 kts 327°
2026-05-04 17:06 -4.05067 15.05637 15927 ft 403 kts 327°
2026-05-04 17:06 -4.02720 15.04076 16448 ft 407 kts 327°
2026-05-04 17:07 -3.97971 15.00916 17536 ft 412 kts 327°
2026-05-04 17:07 -3.96387 14.99862 17898 ft 415 kts 327°
2026-05-04 17:07 -3.93151 14.97709 18517 ft 420 kts 327°
2026-05-04 17:07 -3.90709 14.96085 18981 ft 423 kts 327°
2026-05-04 17:08 -3.88254 14.94453 19440 ft 425 kts 327°
2026-05-04 17:08 -3.83295 14.91156 20361 ft 430 kts 327°
2026-05-04 17:08 -3.80796 14.89494 20811 ft 433 kts 327°
2026-05-04 17:09 -3.78283 14.87823 21245 ft 436 kts 327°
2026-05-04 17:09 -3.75750 14.86139 21689 ft 438 kts 327°
2026-05-04 17:09 -3.73200 14.84444 22114 ft 441 kts 327°
2026-05-04 17:10 -3.68050 14.81024 22961 ft 448 kts 327°
2026-05-04 17:10 -3.61081 14.76394 23976 ft 455 kts 327°
2026-05-04 17:11 -3.58435 14.74635 24334 ft 457 kts 327°
2026-05-04 17:11 -3.55778 14.72868 24691 ft 460 kts 327°
2026-05-04 17:11 -3.50424 14.69310 25397 ft 464 kts 328°
2026-05-04 17:12 -3.47729 14.67519 25748 ft 466 kts 327°
2026-05-04 17:12 -3.42304 14.63916 26418 ft 470 kts 328°
2026-05-04 17:13 -3.34066 14.58445 27387 ft 477 kts 328°
2026-05-04 17:14 -3.25723 14.52906 28324 ft 483 kts 328°
2026-05-04 17:14 -3.22917 14.51043 28641 ft 485 kts 328°
2026-05-04 17:14 -3.17267 14.47291 29209 ft 490 kts 328°
2026-05-04 17:15 -3.14461 14.45428 29496 ft 492 kts 328°
2026-05-04 17:15 -3.08739 14.41629 30088 ft 496 kts 328°
2026-05-04 17:16 -3.02997 14.37817 30794 ft 495 kts 328°
2026-05-04 17:16 -2.94415 14.32123 31819 ft 493 kts 328°
2026-05-04 17:17 -2.91553 14.30225 32101 ft 493 kts 328°
2026-05-04 17:17 -2.82990 14.24544 33057 ft 491 kts 328°
2026-05-04 17:18 -2.80146 14.22658 33378 ft 490 kts 328°
2026-05-04 17:18 -2.74461 14.18887 33875 ft 492 kts 328°
2026-05-04 17:19 -2.68737 14.15092 33934 ft 495 kts 328°
2026-05-04 17:20 -2.57290 14.07500 33935 ft 494 kts 328°
2026-05-04 17:20 -2.48669 14.01786 33933 ft 496 kts 328°
2026-05-04 17:21 -2.37175 13.94164 33929 ft 495 kts 328°
2026-05-04 17:22 -2.31467 13.90383 33924 ft 495 kts 328°
2026-05-04 17:23 -2.20022 13.82697 33920 ft 496 kts 327°
2026-05-04 17:24 -2.11564 13.76752 33920 ft 495 kts 327°
2026-05-04 17:25 -2.00288 13.68836 33915 ft 495 kts 327°
2026-05-04 17:26 -1.89014 13.60941 33913 ft 495 kts 327°
2026-05-04 17:27 -1.74953 13.51093 33911 ft 493 kts 326°
2026-05-04 17:28 -1.63670 13.43255 33911 ft 494 kts 328°
2026-05-04 17:29 -1.46425 13.31977 33908 ft 493 kts 328°
2026-05-04 17:31 -1.32154 13.22632 33903 ft 492 kts 328°
2026-05-04 17:32 -1.17842 13.13261 33907 ft 492 kts 328°
2026-05-04 17:33 -1.06365 13.05750 33905 ft 495 kts 328°
2026-05-04 17:34 -0.94850 12.98211 33906 ft 495 kts 328°
2026-05-04 17:35 -0.80445 12.88783 33903 ft 495 kts 328°
2026-05-04 17:36 -0.74683 12.85012 33902 ft 495 kts 328°
2026-05-04 17:36 -0.68920 12.81241 33903 ft 496 kts 328°
2026-05-04 17:37 -0.63190 12.77492 33902 ft 495 kts 328°
2026-05-04 17:37 -0.57427 12.73720 33907 ft 495 kts 328°
2026-05-04 17:38 -0.51662 12.69947 33905 ft 495 kts 328°
2026-05-04 17:38 -0.45898 12.66175 33905 ft 495 kts 328°
2026-05-04 17:39 -0.37251 12.60518 33903 ft 495 kts 328°
2026-05-04 17:39 -0.31485 12.56744 33905 ft 495 kts 328°
2026-05-04 17:40 -0.25721 12.52972 33905 ft 495 kts 328°
2026-05-04 17:40 -0.19956 12.49200 33906 ft 495 kts 328°
2026-05-04 17:41 -0.14187 12.45425 33907 ft 495 kts 328°
2026-05-04 17:41 -0.08422 12.41654 33905 ft 495 kts 328°
2026-05-04 17:42 -0.02657 12.37882 33905 ft 495 kts 328°
2026-05-04 17:42 0.03097 12.34116 33904 ft 494 kts 328°
2026-05-04 17:43 0.08843 12.30357 33904 ft 493 kts 328°
2026-05-04 17:43 0.14587 12.26598 33903 ft 494 kts 328°
2026-05-04 17:44 0.20332 12.22840 33906 ft 494 kts 328°
2026-05-04 17:44 0.26074 12.19082 33906 ft 494 kts 328°
2026-05-04 17:45 0.31820 12.15322 33909 ft 494 kts 328°
2026-05-04 17:45 0.37566 12.11563 33906 ft 494 kts 328°
2026-05-04 17:46 0.43300 12.07810 33905 ft 491 kts 328°
2026-05-04 17:46 0.48975 12.04096 33912 ft 491 kts 328°
2026-05-04 17:47 0.54695 12.00352 33911 ft 491 kts 328°
2026-05-04 17:47 0.60409 11.96613 33908 ft 491 kts 328°
2026-05-04 17:48 0.66121 11.92873 33909 ft 491 kts 328°
2026-05-04 17:48 0.71837 11.89130 33909 ft 491 kts 328°
2026-05-04 17:49 0.77547 11.85395 33907 ft 492 kts 328°
2026-05-04 17:49 0.83285 11.81638 33911 ft 494 kts 328°
2026-05-04 17:50 0.89026 11.77880 33911 ft 493 kts 328°
2026-05-04 17:50 0.94770 11.74121 33911 ft 493 kts 328°
2026-05-04 17:51 1.00511 11.70363 33911 ft 493 kts 328°
2026-05-04 17:51 1.06257 11.66602 33911 ft 494 kts 328°
2026-05-04 17:52 1.12010 11.62836 33911 ft 495 kts 328°
2026-05-04 17:52 1.17786 11.59056 33914 ft 498 kts 327°
2026-05-04 17:53 1.23580 11.55262 33913 ft 498 kts 327°
2026-05-04 17:53 1.29375 11.51467 33916 ft 498 kts 327°
2026-05-04 17:54 1.35175 11.47669 33922 ft 498 kts 327°
2026-05-04 17:54 1.40928 11.43902 33922 ft 498 kts 327°
2026-05-04 17:55 1.46724 11.40107 33922 ft 498 kts 327°
2026-05-04 17:55 1.52523 11.36310 33919 ft 499 kts 327°
2026-05-04 17:56 1.58331 11.32507 33919 ft 499 kts 327°
2026-05-04 17:56 1.64141 11.28702 33921 ft 499 kts 327°
2026-05-04 17:57 1.69946 11.24897 33922 ft 499 kts 327°
2026-05-04 17:57 1.75754 11.21092 33922 ft 499 kts 327°
2026-05-04 17:58 1.81565 11.17286 33919 ft 499 kts 327°
2026-05-04 17:58 1.87376 11.13479 33922 ft 499 kts 327°
2026-05-04 17:59 1.93178 11.09678 33922 ft 498 kts 327°
2026-05-04 18:00 2.00896 11.04621 33922 ft 498 kts 327°
2026-05-04 18:00 2.06697 11.00819 33922 ft 498 kts 327°
2026-05-04 18:01 2.12498 10.97017 33924 ft 499 kts 327°
2026-05-04 18:01 2.18303 10.93212 33924 ft 499 kts 327°
2026-05-04 18:02 2.27006 10.87509 33921 ft 499 kts 327°
2026-05-04 18:02 2.32816 10.83699 33919 ft 500 kts 327°
2026-05-04 18:03 2.38625 10.79889 33920 ft 499 kts 327°
2026-05-04 18:03 2.44432 10.76082 33924 ft 499 kts 327°
2026-05-04 18:04 2.50232 10.72272 33925 ft 500 kts 327°
2026-05-04 18:05 2.58894 10.66553 33922 ft 499 kts 327°
2026-05-04 18:05 2.64690 10.62724 33920 ft 499 kts 327°
2026-05-04 18:06 2.74219 10.58599 33991 ft 500 kts 342°
2026-05-04 18:06 2.77522 10.57512 34236 ft 499 kts 341°
2026-05-04 18:06 2.80799 10.56379 34514 ft 497 kts 340°
2026-05-04 18:07 2.84041 10.55196 34780 ft 495 kts 340°
2026-05-04 18:07 2.87259 10.53974 35011 ft 494 kts 339°
2026-05-04 18:07 2.90464 10.52731 35226 ft 493 kts 339°
2026-05-04 18:07 2.93658 10.51482 35461 ft 493 kts 339°
2026-05-04 18:08 2.96845 10.50233 35709 ft 491 kts 339°
2026-05-04 18:08 3.00020 10.48990 35860 ft 491 kts 339°
2026-05-04 18:08 3.06420 10.46494 35905 ft 494 kts 339°
2026-05-04 18:09 3.19188 10.41521 35887 ft 492 kts 339°
2026-05-04 18:10 3.25560 10.39038 35886 ft 492 kts 339°
2026-05-04 18:10 3.31939 10.36553 35880 ft 491 kts 339°
2026-05-04 18:11 3.38315 10.34065 35881 ft 492 kts 339°
2026-05-04 18:11 3.44689 10.31580 35884 ft 491 kts 339°
2026-05-04 18:12 3.51070 10.29091 35873 ft 492 kts 339°
2026-05-04 18:12 3.57442 10.26604 35867 ft 491 kts 339°
2026-05-04 18:13 3.63779 10.24129 35868 ft 492 kts 339°
2026-05-04 18:14 3.73336 10.20398 35868 ft 492 kts 339°
2026-05-04 18:14 3.79709 10.17907 35865 ft 492 kts 338°
2026-05-04 18:15 3.92492 10.12916 35856 ft 493 kts 339°
2026-05-04 18:16 3.98893 10.10418 35858 ft 493 kts 339°
2026-05-04 18:16 4.05280 10.07924 35856 ft 493 kts 339°
2026-05-04 18:17 4.14865 10.04174 35855 ft 492 kts 339°
2026-05-04 18:18 4.24379 10.00432 35859 ft 488 kts 339°
2026-05-04 18:18 4.30708 9.97944 35848 ft 489 kts 339°
2026-05-04 18:19 4.40185 9.94215 35845 ft 489 kts 339°
2026-05-04 18:19 4.46512 9.91724 35846 ft 489 kts 339°
2026-05-04 18:20 4.52843 9.89234 35852 ft 489 kts 340°
2026-05-04 18:20 4.59159 9.86748 35853 ft 487 kts 339°
2026-05-04 18:21 4.65463 9.84266 35854 ft 487 kts 340°
2026-05-04 18:21 4.71765 9.81777 35871 ft 487 kts 339°
2026-05-04 18:22 4.78083 9.79286 35871 ft 488 kts 339°
2026-05-04 18:22 4.84391 9.76798 35890 ft 487 kts 339°
2026-05-04 18:23 4.90668 9.74323 35889 ft 488 kts 339°
2026-05-04 18:23 4.96986 9.71831 35911 ft 488 kts 339°
2026-05-04 18:24 5.03307 9.69337 35911 ft 488 kts 339°
2026-05-04 18:24 5.09625 9.66845 35910 ft 488 kts 339°
2026-05-04 18:25 5.15948 9.64353 35911 ft 488 kts 339°
2026-05-04 18:25 5.22265 9.61860 35912 ft 488 kts 339°
2026-05-04 18:26 5.28579 9.59370 35904 ft 486 kts 339°
2026-05-04 18:26 5.34834 9.56902 35904 ft 480 kts 339°
2026-05-04 18:27 5.41059 9.54447 35897 ft 481 kts 339°
2026-05-04 18:27 5.47295 9.51985 35885 ft 481 kts 339°
2026-05-04 18:28 5.53525 9.49525 35884 ft 481 kts 339°
2026-05-04 18:28 5.59755 9.47064 35886 ft 481 kts 339°
2026-05-04 18:29 5.65990 9.44600 35886 ft 482 kts 339°
2026-05-04 18:29 5.72227 9.42132 35892 ft 482 kts 339°
2026-05-04 18:30 5.81546 9.38445 35878 ft 482 kts 339°
2026-05-04 18:31 5.87787 9.35976 35884 ft 482 kts 339°
2026-05-04 18:31 5.94022 9.33507 35884 ft 482 kts 339°
2026-05-04 18:32 6.00259 9.31037 35884 ft 482 kts 339°
2026-05-04 18:32 6.06492 9.28569 35892 ft 480 kts 338°
2026-05-04 18:33 6.12706 9.26112 35894 ft 480 kts 339°
2026-05-04 18:33 6.19183 9.24593 35898 ft 479 kts 354°
2026-05-04 18:34 6.25832 9.24207 35895 ft 480 kts 358°
2026-05-04 18:34 6.32498 9.23919 35895 ft 480 kts 357°
2026-05-04 18:35 6.39028 9.22706 35887 ft 479 kts 339°
2026-05-04 18:35 6.42023 9.21265 35883 ft 477 kts 328°
2026-05-04 18:35 6.44700 9.19317 35884 ft 475 kts 318°
2026-05-04 18:36 6.48842 9.14152 35879 ft 478 kts 301°
2026-05-04 18:36 6.52842 9.08850 35866 ft 478 kts 316°
2026-05-04 18:37 6.57748 9.04342 35865 ft 478 kts 319°
2026-05-04 18:37 6.62759 8.99945 35862 ft 477 kts 319°
2026-05-04 18:38 6.67696 8.95548 35864 ft 477 kts 318°
2026-05-04 18:38 6.72641 8.91092 35851 ft 478 kts 318°
2026-05-04 18:39 6.77584 8.86625 35851 ft 478 kts 318°
2026-05-04 18:39 6.82525 8.82157 35852 ft 478 kts 318°
2026-05-04 18:40 6.87464 8.77692 35849 ft 477 kts 318°
2026-05-04 18:40 6.92399 8.73229 35848 ft 476 kts 318°
2026-05-04 18:41 6.97334 8.68767 35849 ft 478 kts 318°
2026-05-04 18:41 7.02285 8.64289 35848 ft 479 kts 318°
2026-05-04 18:42 7.07250 8.59798 35846 ft 479 kts 318°
2026-05-04 18:42 7.12201 8.55319 35846 ft 478 kts 318°
2026-05-04 18:43 7.17148 8.50843 35846 ft 478 kts 318°
2026-05-04 18:43 7.22098 8.46365 35843 ft 479 kts 318°
2026-05-04 18:44 7.27016 8.41913 35843 ft 479 kts 318°
2026-05-04 18:44 7.31978 8.37420 35842 ft 479 kts 318°
2026-05-04 18:45 7.36930 8.32937 35845 ft 479 kts 318°
2026-05-04 18:45 7.41877 8.28454 35846 ft 479 kts 318°
2026-05-04 18:46 7.46822 8.23949 35845 ft 479 kts 317°
2026-05-04 18:46 7.51766 8.19433 35849 ft 480 kts 317°
2026-05-04 18:47 7.56701 8.14923 35845 ft 477 kts 317°
2026-05-04 18:47 7.61607 8.10441 35846 ft 477 kts 317°
2026-05-04 18:48 7.66515 8.05954 35845 ft 476 kts 317°
2026-05-04 18:48 7.71434 8.01456 35848 ft 477 kts 317°
2026-05-04 18:49 7.76334 7.96974 35849 ft 476 kts 317°
2026-05-04 18:49 7.80416 7.93238 35848 ft 477 kts 317°
2026-05-04 18:50 7.85328 7.88744 35848 ft 477 kts 317°
2026-05-04 18:50 7.90242 7.84246 35850 ft 477 kts 317°
2026-05-04 18:51 7.94955 7.79931 35848 ft 474 kts 317°
2026-05-04 18:51 7.99842 7.75457 35840 ft 475 kts 317°
2026-05-04 18:52 8.04731 7.70978 35840 ft 475 kts 317°
2026-05-04 18:52 8.09618 7.66498 35841 ft 475 kts 317°
2026-05-04 18:53 8.14505 7.62016 35840 ft 475 kts 317°
2026-05-04 18:53 8.19393 7.57536 35836 ft 475 kts 317°
2026-05-04 18:54 8.24259 7.53074 35840 ft 476 kts 317°
2026-05-04 18:54 8.29160 7.48579 35843 ft 475 kts 317°
2026-05-04 18:55 8.34038 7.44102 35843 ft 473 kts 317°
2026-05-04 18:55 8.41346 7.37389 35843 ft 474 kts 317°
2026-05-04 18:56 8.46217 7.32913 35851 ft 473 kts 317°
2026-05-04 18:56 8.51086 7.28435 35848 ft 473 kts 317°
2026-05-04 18:57 8.55958 7.23955 35848 ft 473 kts 317°
2026-05-04 18:57 8.60827 7.19474 35853 ft 473 kts 317°
2026-05-04 18:58 8.65695 7.14992 35853 ft 473 kts 317°
2026-05-04 18:58 8.70544 7.10523 35848 ft 470 kts 317°
2026-05-04 18:59 8.75379 7.06067 35853 ft 470 kts 317°
2026-05-04 18:59 8.80219 7.01612 35853 ft 471 kts 317°
2026-05-04 19:00 8.85055 6.97158 35845 ft 470 kts 317°
2026-05-04 19:00 8.89891 6.92700 35852 ft 470 kts 317°
2026-05-04 19:01 8.94728 6.88239 35853 ft 470 kts 317°
2026-05-04 19:01 8.99526 6.83813 35847 ft 470 kts 317°
2026-05-04 19:02 9.04372 6.79341 35853 ft 472 kts 317°
2026-05-04 19:02 9.09217 6.74868 35853 ft 471 kts 317°
2026-05-04 19:03 9.14060 6.70396 35853 ft 471 kts 317°
2026-05-04 19:03 9.18905 6.65918 35851 ft 471 kts 317°
2026-05-04 19:04 9.23736 6.61453 35851 ft 471 kts 317°
2026-05-04 19:04 9.28574 6.56978 35849 ft 471 kts 317°
2026-05-04 19:05 9.33415 6.52494 35845 ft 471 kts 317°
2026-05-04 19:05 9.38253 6.48014 35846 ft 471 kts 317°
2026-05-04 19:06 9.43093 6.43533 35845 ft 472 kts 317°
2026-05-04 19:06 9.47941 6.39043 35843 ft 472 kts 317°
2026-05-04 19:07 9.52790 6.34551 35843 ft 472 kts 317°
2026-05-04 19:07 9.57639 6.30057 35843 ft 472 kts 317°
2026-05-04 19:08 9.62483 6.25565 35843 ft 472 kts 317°
2026-05-04 19:08 9.67326 6.21073 35839 ft 472 kts 317°
2026-05-04 19:09 9.72173 6.16574 35840 ft 472 kts 317°
2026-05-04 19:09 9.76986 6.12106 35842 ft 472 kts 317°
2026-05-04 19:10 9.81828 6.07610 35843 ft 472 kts 317°
2026-05-04 19:10 9.86667 6.03114 35845 ft 472 kts 317°
2026-05-04 19:11 9.91502 5.98616 35845 ft 472 kts 317°
2026-05-04 19:11 9.96334 5.94117 35845 ft 472 kts 317°
2026-05-04 19:12 10.03589 5.87365 35845 ft 472 kts 317°
2026-05-04 19:13 10.08427 5.82861 35845 ft 472 kts 317°
2026-05-04 19:13 10.13262 5.78358 35845 ft 472 kts 317°
2026-05-04 19:14 10.18096 5.73854 35848 ft 471 kts 317°
2026-05-04 19:14 10.22920 5.69357 35849 ft 471 kts 317°
2026-05-04 19:15 10.27742 5.64861 35849 ft 471 kts 317°
2026-05-04 19:15 10.32563 5.60363 35849 ft 471 kts 317°
2026-05-04 19:16 10.37381 5.55867 35850 ft 471 kts 317°
2026-05-04 19:16 10.42201 5.51366 35851 ft 471 kts 316°
2026-05-04 19:17 10.47020 5.46864 35851 ft 471 kts 317°
2026-05-04 19:17 10.51840 5.42359 35851 ft 471 kts 316°
2026-05-04 19:18 10.56654 5.37851 35848 ft 470 kts 317°
2026-05-04 19:18 10.61467 5.33346 35848 ft 470 kts 317°
2026-05-04 19:19 10.66278 5.28843 35843 ft 471 kts 316°
2026-05-04 19:19 10.71092 5.24336 35842 ft 471 kts 316°
2026-05-04 19:20 10.75911 5.19822 35843 ft 471 kts 316°
2026-05-04 19:20 10.80728 5.15309 35836 ft 471 kts 316°
2026-05-04 19:21 10.85545 5.10793 35835 ft 471 kts 316°
2026-05-04 19:21 10.90325 5.06310 35835 ft 471 kts 316°
2026-05-04 19:22 10.95138 5.01794 35828 ft 471 kts 316°
2026-05-04 19:22 10.99949 4.97277 35828 ft 471 kts 316°
2026-05-04 19:23 11.04761 4.92757 35832 ft 471 kts 316°
2026-05-04 19:23 11.09575 4.88234 35832 ft 471 kts 316°
2026-05-04 19:24 11.14385 4.83708 35827 ft 471 kts 316°
2026-05-04 19:24 11.19199 4.79174 35826 ft 471 kts 316°
2026-05-04 19:25 11.24015 4.74640 35826 ft 471 kts 316°
2026-05-04 19:25 11.28831 4.70105 35819 ft 471 kts 317°
2026-05-04 19:26 11.33622 4.65593 35820 ft 468 kts 317°
2026-05-04 19:26 11.38379 4.61111 35820 ft 469 kts 317°
2026-05-04 19:27 11.43165 4.56598 35822 ft 469 kts 316°
2026-05-04 19:27 11.47950 4.52084 35819 ft 468 kts 316°
2026-05-04 19:28 11.52732 4.47571 35818 ft 468 kts 316°
2026-05-04 19:28 11.57515 4.43055 35818 ft 468 kts 316°
2026-05-04 19:29 11.62293 4.38542 35815 ft 468 kts 316°
2026-05-04 19:29 11.67075 4.34023 35817 ft 468 kts 316°
2026-05-04 19:30 11.71833 4.29523 35817 ft 468 kts 316°
2026-05-04 19:30 11.76599 4.25007 35817 ft 468 kts 316°
2026-05-04 19:31 11.81368 4.20487 35818 ft 467 kts 316°
2026-05-04 19:31 11.86140 4.15967 35817 ft 469 kts 316°
2026-05-04 19:32 11.90929 4.11428 35818 ft 470 kts 316°
2026-05-04 19:32 11.95716 4.06891 35804 ft 470 kts 316°
2026-05-04 19:33 12.00476 4.02377 35819 ft 470 kts 316°
2026-05-04 19:33 12.05256 3.97841 35806 ft 468 kts 316°
2026-05-04 19:34 12.10007 3.93331 35801 ft 467 kts 316°
2026-05-04 19:34 12.14769 3.88808 35807 ft 467 kts 316°
2026-05-04 19:35 12.19531 3.84282 35821 ft 467 kts 316°
2026-05-04 19:35 12.24292 3.79754 35826 ft 468 kts 316°
2026-05-04 19:36 12.29073 3.75206 35810 ft 471 kts 316°
2026-05-04 19:36 12.33865 3.70646 35819 ft 470 kts 316°
2026-05-04 19:37 12.38654 3.66078 35829 ft 470 kts 315°
2026-05-04 19:37 12.43425 3.61525 35815 ft 467 kts 315°
2026-05-04 19:38 12.48173 3.56997 35508 ft 463 kts 315°
2026-05-04 19:38 12.50512 3.54768 35197 ft 459 kts 315°
2026-05-04 19:38 12.52058 3.53293 34951 ft 458 kts 315°
2026-05-04 19:38 12.54287 3.50963 34383 ft 459 kts 307°
2026-05-04 19:39 12.56073 3.48263 33705 ft 456 kts 298°
2026-05-04 19:39 12.57525 3.45379 33065 ft 456 kts 295°
2026-05-04 19:39 12.58905 3.42451 32503 ft 457 kts 295°
2026-05-04 19:39 12.60326 3.39530 31965 ft 459 kts 296°
2026-05-04 19:40 12.61810 3.36630 31425 ft 461 kts 298°
2026-05-04 19:40 12.63347 3.33749 30915 ft 461 kts 299°
2026-05-04 19:40 12.64916 3.30882 30379 ft 462 kts 299°
2026-05-04 19:40 12.66502 3.28021 29858 ft 462 kts 300°
2026-05-04 19:41 12.68097 3.25156 29260 ft 464 kts 300°
2026-05-04 19:41 12.69700 3.22278 28653 ft 468 kts 300°
2026-05-04 19:41 12.71318 3.19370 28025 ft 472 kts 300°
2026-05-04 19:41 12.72951 3.16432 27432 ft 476 kts 300°
2026-05-04 19:42 12.74595 3.13470 26823 ft 481 kts 300°
2026-05-04 19:42 12.76256 3.10477 26208 ft 485 kts 300°
2026-05-04 19:42 12.77931 3.07457 25591 ft 490 kts 300°
2026-05-04 19:42 12.79612 3.04420 24969 ft 490 kts 300°
2026-05-04 19:43 12.81291 3.01386 24349 ft 489 kts 300°
2026-05-04 19:43 12.82967 2.98355 23732 ft 489 kts 300°
2026-05-04 19:43 12.84643 2.95324 23059 ft 488 kts 301°
2026-05-04 19:43 12.86310 2.92312 22374 ft 484 kts 301°
2026-05-04 19:44 12.87961 2.89324 21741 ft 479 kts 301°
2026-05-04 19:44 12.89597 2.86366 21126 ft 474 kts 301°
2026-05-04 19:44 12.91212 2.83443 20516 ft 469 kts 301°
2026-05-04 19:44 12.92813 2.80545 19925 ft 465 kts 301°
2026-05-04 19:45 12.94396 2.77675 19339 ft 460 kts 301°
2026-05-04 19:45 12.95962 2.74831 18760 ft 455 kts 301°
2026-05-04 19:45 12.97511 2.72018 18186 ft 451 kts 301°
2026-05-04 19:45 12.99043 2.69235 17555 ft 446 kts 301°
2026-05-04 19:46 13.00566 2.66475 16946 ft 442 kts 301°
2026-05-04 19:46 13.02072 2.63744 16372 ft 439 kts 301°
2026-05-04 19:46 13.03549 2.61065 15828 ft 436 kts 301°
2026-05-04 19:46 13.05034 2.58369 15259 ft 434 kts 301°
2026-05-04 19:47 13.06514 2.55683 14701 ft 431 kts 301°
2026-05-04 19:47 13.07983 2.53016 14160 ft 428 kts 301°
2026-05-04 19:47 13.09442 2.50365 13608 ft 425 kts 301°
2026-05-04 19:47 13.10889 2.47735 13015 ft 422 kts 301°
2026-05-04 19:48 13.12325 2.45125 12446 ft 419 kts 301°
2026-05-04 19:48 13.13746 2.42543 11907 ft 412 kts 301°
2026-05-04 19:48 13.15141 2.40006 11381 ft 405 kts 301°
2026-05-04 19:48 13.16513 2.37511 10960 ft 398 kts 301°
2026-05-04 19:49 13.17867 2.35049 10765 ft 389 kts 301°
2026-05-04 19:49 13.19154 2.32705 10631 ft 365 kts 301°
2026-05-04 19:49 13.20362 2.30502 10504 ft 344 kts 301°
2026-05-04 19:49 13.21502 2.28427 10354 ft 324 kts 301°
2026-05-04 19:50 13.22580 2.26465 10235 ft 307 kts 301°
2026-05-04 19:50 13.23606 2.24600 9953 ft 295 kts 301°
2026-05-04 19:50 13.24609 2.22777 9517 ft 292 kts 301°
2026-05-04 19:50 13.25604 2.20972 9027 ft 289 kts 301°
2026-05-04 19:51 13.26579 2.19199 8690 ft 282 kts 301°
2026-05-04 19:51 13.27542 2.17446 8324 ft 284 kts 301°
2026-05-04 19:51 13.28513 2.15681 7922 ft 284 kts 301°
2026-05-04 19:51 13.29479 2.13921 7534 ft 282 kts 300°
2026-05-04 19:52 13.30437 2.12174 7160 ft 280 kts 300°
2026-05-04 19:52 13.31392 2.10433 6783 ft 279 kts 300°
2026-05-04 19:52 13.32338 2.08706 6405 ft 276 kts 300°
2026-05-04 19:52 13.33268 2.07008 6027 ft 273 kts 300°
2026-05-04 19:53 13.34201 2.05304 5635 ft 273 kts 300°
2026-05-04 19:53 13.35128 2.03610 5388 ft 268 kts 300°
2026-05-04 19:53 13.36102 2.02047 5195 ft 256 kts 310°
2026-05-04 19:53 13.37485 2.00927 4849 ft 254 kts 336°
2026-05-04 19:54 13.39152 2.00522 4526 ft 238 kts 353°
2026-05-04 19:54 13.40713 2.00408 4195 ft 219 kts 356°
2026-05-04 19:54 13.42179 2.00337 3903 ft 206 kts 357°
2026-05-04 19:54 13.43615 2.00276 3650 ft 206 kts 359°
2026-05-04 19:55 13.45030 2.00443 3508 ft 206 kts 16°
2026-05-04 19:55 13.46288 2.01126 3422 ft 207 kts 40°
2026-05-04 19:55 13.47152 2.02299 3321 ft 209 kts 66°
2026-05-04 19:55 13.47498 2.03733 3080 ft 207 kts 82°
2026-05-04 19:56 13.47645 2.05206 2813 ft 207 kts 86°
2026-05-04 19:56 13.47714 2.06685 2570 ft 208 kts 88°
2026-05-04 19:56 13.47771 2.08152 2284 ft 202 kts 88°
2026-05-04 19:56 13.47832 2.09559 2034 ft 193 kts 88°
2026-05-04 19:57 13.47893 2.10887 1777 ft 181 kts 89°
2026-05-04 19:57 13.47950 2.12182 1599 ft 182 kts 90°
2026-05-04 19:57 13.48007 2.13474 1392 ft 181 kts 88°
2026-05-04 19:57 13.48066 2.14762 1177 ft 180 kts 88°
2026-05-04 19:58 13.48119 2.16049 937 ft 184 kts 89°
2026-05-04 19:58 13.48182 2.17392 742 ft 179 kts 88°
2026-05-04 19:58 13.48233 2.18492 735 ft 130 kts 86°
2026-05-04 19:58 13.48269 2.19258 726 ft 80 kts 87°
2026-05-04 19:59 13.48286 2.19614 724 ft 28 kts 89°
2026-05-04 19:59 13.48224 2.19696 727 ft 11 kts 163°
2026-05-04 19:59 13.48151 2.19705 726 ft 12 kts 184°
2026-05-04 19:59 13.48106 2.19674 727 ft 9 kts 242°
2026-05-04 20:00 13.48092 2.19576 729 ft 19 kts 264°
2026-05-04 20:00 13.48082 2.19413 728 ft 25 kts 267°
2026-05-04 20:00 13.48075 2.19239 729 ft 23 kts 268°
2026-05-04 20:00 13.48069 2.19079 730 ft 22 kts 268°
2026-05-04 20:01 13.48063 2.18930 733 ft 20 kts 268°
2026-05-04 20:01 13.48057 2.18790 735 ft 19 kts 268°
2026-05-04 20:01 13.48052 2.18661 733 ft 17 kts 267°
2026-05-04 20:01 13.48046 2.18536 734 ft 19 kts 267°
2026-05-04 20:02 13.48038 2.18376 735 ft 26 kts 267°
2026-05-04 20:02 13.48029 2.18175 736 ft 28 kts 267°
2026-05-04 20:02 13.48020 2.17982 737 ft 26 kts 267°
2026-05-04 20:02 13.48012 2.17810 738 ft 23 kts 267°
2026-05-04 20:03 13.47994 2.17666 738 ft 14 kts 240°
2026-05-04 20:03 13.47950 2.17647 739 ft 5 kts 176°
2026-05-04 20:03 13.47915 2.17652 739 ft 6 kts 171°
2026-05-04 20:03 13.47860 2.17658 739 ft 9 kts 176°
2026-05-04 20:04 13.47806 2.17661 739 ft 6 kts 177°
2026-05-04 20:04 13.47798 2.17661 739 ft 0 kts 177°
2026-05-04 20:04 13.47796 2.17661 739 ft 0 kts 177°